Regional Weather Roundup
Issued by NWS Northern Indiana

Home | Current Version | Previous Version | Graphics & Text | Print | Product List | Glossary On
Versions: 1 2 3 4 5 6 7 8 9 10 11 12 13 14 15 16 17 18 19 20 21 22 23 24 25 26 27 28 29 30 31 32 33 34 35 36 37 38 39 40 41 42 43 44 45 46 47 48 49 50
000
ASUS43 KIWX 270910
RWRIWX

KIWX WEATHER ROUNDUP
NATIONAL WEATHER SERVICE NORTHERN INDIANA
500 AM EDT WED AUG 27 2014

NOTE: "FAIR" INDICATES FEW OR NO CLOUDS BELOW 12,000 FEET WITH NO
SIGNIFICANT WEATHER AND/OR OBSTRUCTIONS TO VISIBILITY.

* THESE STATIONS ARE NOT UNDER NWS QUALITY CONTROL. THEY ALSO MAY NOT
  REPORT WEATHER SUCH AS PRECIPITATION OR FOG.

INZ001>027-271000-
NORTHERN INDIANA

CITY           SKY/WX    TMP DP  RH WIND       PRES   REMARKS
GARY*          CLOUDY    71  67  89 E5        30.12R
VALPARAISO     CLOUDY    67  64  90 CALM      30.12R
MICHIGAN CITY* CLOUDY    63  63 100 CALM      30.12S FOG
LAPORTE*       MOCLDY    65  65 100 N3        30.12S
KNOX*          CLOUDY    65  64  94 CALM      30.10S
SOUTH BEND     PTCLDY    66  64  93 N3        30.11S
GOSHEN         PTCLDY    67  64  90 CALM      30.10S
MONTICELLO*    MOCLDY    69  69  99 CALM      30.08F FOG
LOGANSPORT*    PTCLDY    66  64  94 CALM      30.10S FOG
ROCHESTER*     CLOUDY    70  70 100 N5        30.10S FOG
WARSAW*        CLOUDY    68  68 100 N5        30.10F FOG
ANGOLA*        CLEAR     66  57  72 CALM      30.10S
FORT WAYNE     MOCLDY    70  68  93 CALM      30.10S
HUNTINGTON*    MOCLDY    69  69  99 CALM      30.09F THUNDER
PERU/GRISSOM   MOCLDY    69  69 100 NW2       30.09F
MARION*        MOCLDY    67  66  97 NE3       30.10F

$$
INZ028>050-271000-
CENTRAL INDIANA

CITY           SKY/WX    TMP DP  RH WIND       PRES   REMARKS
LAFAYETTE      MOCLDY    65  65 100 CALM      30.08S
KOKOMO*        MOCLDY    68  64  88 CALM      30.09S
MUNCIE*        MOCLDY    70  68  93 CALM      30.09F
INDIANAPOLIS   CLOUDY    72  69  90 CALM      30.08S

$$
MIZ043>046-050>051-056>058-064>065-071>073-077>080-271000-
SOUTHWEST LOWER MICHIGAN

CITY           SKY/WX    TMP DP  RH WIND       PRES   REMARKS
BATTLE CREEK   PTCLDY    63  59  87 N6        30.12R
BENTON HARBOR  PTCLDY    59  58  96 CALM      30.11S
COLDWATER*     CLEAR     63  62  97 CALM      30.10S
HILLSDALE*     CLEAR     64  64 100 CALM      30.10S
HOLLAND        CLEAR     60  57  89 CALM      30.12F
GRAND RAPIDS   CLEAR     60  60 100 CALM      30.12S
KALAMAZOO      PTCLDY    62  59  90 N3        30.11R
STURGIS*       CLEAR     63  63 100 CALM      30.10S FOG
THREE RIVERS*  FAIR      64  63  96 NW5       30.11S

$$
OHZ001>008-015>018-024>025-271000-
NORTHWEST OHIO

CITY           SKY/WX    TMP DP  RH WIND       PRES   REMARKS
WAUSEON*       MOCLDY    66  66 100 CALM      30.09S FOG
DEFIANCE       MOCLDY    69  66  90 CALM      30.09S FOG
FINDLAY        FOG       69  68  96 CALM      30.08F VSB 1
TOLEDO EXPRESS CLOUDY    70  68  93 CALM      30.08S
TOLEDO METCALF MOCLDY    70  65  84 NW3       30.09R
LIMA           PTCLDY    70  67  90 N3        30.09S

$$
&&


USA.gov is the U.S. government's official web portal to all federal, state and local government web resources and services.